Weather Service Report


089 
ASUS46 KPQR 281810
RWROR 

OREGON REGIONAL WEATHER ROUNDUP
NATIONAL WEATHER SERVICE PORTLAND OR
1100 AM PDT THU AUG 28 2014

NOTE: "FAIR" INDICATES FEW OR NO CLOUDS BELOW 12,000 FEET WITH
NO SIGNIFICANT WEATHER AND/OR OBSTRUCTIONS TO VISIBILITY.

ORZ001>013-281900-
NORTHWEST OREGON

  
CITY           SKY/WX    TMP DP  RH WIND       PRES   REMARKS
ASTORIA        PTSUNNY   67  60  78 CALM      30.13R                  
6HR MIN TEMP:  59; 6HR MAX TEMP:  68;                                

NEWPORT        SUNNY     61  55  82 NW8       30.16S                  
PORTLAND       MOSUNNY   67  58  72 CALM      30.13S                  
6HR MIN TEMP:  60; 6HR MAX TEMP:  68;                                

VANCOUVER WA   MOSUNNY   68  56  65 VRB3      30.12F                  
6HR MIN TEMP:  60; 6HR MAX TEMP:  68;                                

SCAPPOOSE      MOSUNNY   72  57  59 N6        30.12S                  
6HR MIN TEMP:  59; 6HR MAX TEMP:  72;                                

HILLSBORO      MOSUNNY   71  57  61 NE5       30.12S                  
6HR MIN TEMP:  54; 6HR MAX TEMP:  71;                                

AURORA         SUNNY     71  57  61 VRB3      30.12F                  
6HR MIN TEMP:  59; 6HR MAX TEMP:  72;                                

MCMINNVILLE    MOSUNNY   74  57  55 CALM      30.12F                  
6HR MIN TEMP:  56; 6HR MAX TEMP:  74;                                

SALEM          SUNNY     76  56  49 NE7       30.10F                  
6HR MIN TEMP:  56; 6HR MAX TEMP:  76;                                

CORVALLIS      SUNNY     75  57  53 N5        30.12S                  
EUGENE         MOSUNNY   76  54  46 NE6       30.11F                  
6HR MIN TEMP:  55; 6HR MAX TEMP:  77;                                

$$

ORZ021-028-281900-
SOUTHWEST OREGON

  
CITY           SKY/WX    TMP DP  RH WIND       PRES   REMARKS
NORTH BEND     SUNNY     61  59  94 W7        30.14S                  
6HR MIN TEMP:  54; 6HR MAX TEMP:  61;                                

BROOKINGS      PTCLDY    63  56  78 W5        30.10R                  
ROSEBURG       SUNNY     76  54  46 W3        30.10F                  
6HR MIN TEMP:  61; 6HR MAX TEMP:  78;                                

SEXTON SUMMIT  SUNNY     72  50  45 VRB3      30.21R                  
6HR MIN TEMP:  60; 6HR MAX TEMP:  72;                                

MEDFORD        SUNNY     79  51  37 NW3       30.09S                  
6HR MIN TEMP:  64; 6HR MAX TEMP:  79;                                

$$

ORZ009-041-281900-
COLUMBIA GORGE

  
CITY           SKY/WX    TMP DP  RH WIND       PRES   REMARKS
TROUTDALE      CLOUDY    66  57  72 NW3       30.12S                  
6HR MIN TEMP:  60; 6HR MAX TEMP:  67;                                

THE DALLES     MOSUNNY   82  50  32 NW21      30.01S                  
6HR MIN TEMP:  67; 6HR MAX TEMP:  83;                                

$$

ORZ029>031-042>050-061>064-281900-
EASTERN OREGON

  
CITY           SKY/WX    TMP DP  RH WIND       PRES   REMARKS
REDMOND        SUNNY     76  48  37 VRB3      30.13F                  
6HR MIN TEMP:  47; 6HR MAX TEMP:  77;                                

BEND           CLEAR     75  45  33 W5        30.15F                  
KLAMATH FALLS  MOSUNNY   74  45  35 VRB3      30.20S                  
6HR MIN TEMP:  49; 6HR MAX TEMP:  74;                                

HERMISTON      SUNNY     83  53  35 W10       29.99F                  
6HR MIN TEMP:  60; 6HR MAX TEMP:  83;                                

PENDLETON      SUNNY     82  45  27 W20G28    30.03S                  
6HR MIN TEMP:  65; 6HR MAX TEMP:  83;                                

JOHN DAY       CLEAR     76  49  38 W5        30.15F                  
MEACHAM        SUNNY     74  48  39 MISG      30.15S                  
6HR MIN TEMP:  46; 6HR MAX TEMP:  75;                                

LA GRANDE      SUNNY     81  46  30 W12G17    30.08F                  
6HR MIN TEMP:  55; 6HR MAX TEMP:  81;                                

BAKER CITY     SUNNY     78  49  35 CALM      30.12F                  
6HR MIN TEMP:  46; 6HR MAX TEMP:  78;                                

BURNS          SUNNY     74  48  39 SE5       30.19F                  
6HR MIN TEMP:  47; 6HR MAX TEMP:  75;                                

ROME             N/A     84  40  21 VRB3      30.14F                  
6HR MIN TEMP:  56; 6HR MAX TEMP:  85;                                

ONTARIO        SUNNY     78  47  33 CALM      30.07F                  
6HR MIN TEMP:  53; 6HR MAX TEMP:  78;                                

$$

Return to Home page


Western Regional Climate Center, wrcc@dri.edu